Richmond Hanover County, VA

12:52 AM EDT on September 16, 2019 (GMT -0400)
Hanover County Municipal

Weather History for KOFP - August, 2019

Change the Weather History Date:

Tuesday, August 20, 2019

  Actual Average Record
Temperature  
Mean Temperature 83 °F -  
Max Temperature 96 °F 83 °F 103 °F (1983)
Min Temperature 71 °F 64 °F 50 °F (1998)
Cooling Degree Days 18    
Growing Degree Days 33 (Base 50)    
Moisture  
Dew Point 69 °F    
Average Humidity 74    
Maximum Humidity 94    
Minimum Humidity 44    
Precipitation  
Precipitation 0.83 in - - ()
Sea Level Pressure  
Sea Level Pressure 30.08 in    
Wind  
Wind Speed 4 mph (SSE)    
Max Wind Speed 13 mph    
Max Gust Speed 20 mph    
Visibility 8 miles    
Events Rain , Thunderstorm    
Averages and records for this station are not official NWS values.
T = Trace of Precipitation, MM = Missing Value Source: NWS Daily Summary

Daily Weather History Graph

Daily Weather History Graph

Search for Another Location

Airport or City:

Astronomy

Aug. 20, 2019 Rise Set
Actual Time 6:29 AM EDT 7:56 PM EDT
Civil Twilight 6:01 AM EDT 8:23 PM EDT
Nautical Twilight 5:28 AM EDT 8:56 PM EDT
Astronomical Twilight 4:53 AM EDT 9:31 PM EDT
Moon 10:49 PM EDT (8/20) 11:00 AM EDT (8/20)
Length of Visible Light 14h 21m
Length of Day
13h 26m
Waning Gibbous, 78% of the Moon is Illuminated
Aug 20
Waning Gibbous
Aug 23
Last Quarter
Aug 30
New
Sep 5
First Quarter
Sep 14
Full

Hourly Weather History & Observations

Time (EDT) Temp. Heat Index Dew Point Humidity Pressure Visibility Wind Dir Wind Speed Gust Speed Precip Events Conditions
12:54 AM 77.0 °F - 70.0 °F 79% 30.04 in 10.0 mi Calm Calm - N/A   Clear
1:54 AM 79.0 °F - 69.1 °F 72% 30.05 in 10.0 mi SSW 3.5 mph - N/A   Clear
2:54 AM 78.1 °F - 68.0 °F 71% 30.05 in 10.0 mi SW 4.6 mph - N/A   Clear
3:54 AM 73.9 °F - 69.1 °F 85% 30.06 in 10.0 mi Calm Calm - N/A   Clear
4:54 AM 73.9 °F - 68.0 °F 82% 30.06 in 10.0 mi Calm Calm - N/A   Clear
5:54 AM 75.0 °F - 66.9 °F 76% 30.07 in 10.0 mi SW 4.6 mph - N/A   Clear
6:54 AM 73.9 °F - 66.9 °F 79% 30.08 in 9.0 mi Calm Calm - N/A   Clear
7:54 AM 75.9 °F - 68.0 °F 76% 30.10 in 9.0 mi WSW 4.6 mph - N/A   Clear
8:54 AM 79.0 °F - 69.1 °F 72% 30.10 in 9.0 mi WNW 3.5 mph - N/A   Clear
9:54 AM 82.9 °F 87.0 °F 70.0 °F 65% 30.10 in 8.0 mi Variable 3.5 mph - N/A   Clear
10:54 AM 86.0 °F 90.7 °F 70.0 °F 59% 30.11 in 9.0 mi Calm Calm - N/A   Clear
11:54 AM 90.0 °F 95.4 °F 70.0 °F 52% 30.10 in 10.0 mi Calm Calm - N/A   Clear
12:54 PM 91.0 °F 95.6 °F 69.1 °F 48% 30.08 in 10.0 mi ESE 3.5 mph - N/A   Clear
1:54 PM 93.0 °F 97.9 °F 69.1 °F 45% 30.07 in 10.0 mi South 5.8 mph - N/A   Clear
2:54 PM 95.0 °F 101.3 °F 70.0 °F 44% 30.04 in 10.0 mi South 6.9 mph - N/A   Partly Cloudy
3:34 PM 93.0 °F 97.9 °F 69.1 °F 45% 30.04 in 10.0 mi Variable 5.8 mph - N/A Thunderstorm Clear
3:54 PM 89.1 °F 92.1 °F 66.9 °F 48% 30.04 in 10.0 mi South 12.7 mph 19.6 mph N/A Thunderstorm Scattered Clouds
4:50 PM 87.8 °F 90.4 °F 66.2 °F 49% 30.05 in 10.0 mi SSE 9.2 mph - 0.00 in   Partly Cloudy
4:54 PM 88.0 °F 90.3 °F 66.0 °F 48% 30.04 in 10.0 mi South 5.8 mph - 0.00 in   Clear
5:54 PM 87.1 °F 91.3 °F 69.1 °F 55% 30.02 in 10.0 mi South 5.8 mph - N/A   Clear
6:54 PM 84.9 °F 89.4 °F 70.0 °F 61% 30.02 in 10.0 mi South 5.8 mph - N/A   Clear
7:54 PM 81.0 °F 85.8 °F 73.0 °F 77% 30.05 in 10.0 mi Calm Calm - N/A   Clear
8:42 PM 80.1 °F 82.3 °F 66.9 °F 64% 30.08 in 10.0 mi Variable 5.8 mph - N/A Thunderstorm Mostly Cloudy
8:54 PM 75.0 °F - 69.1 °F 82% 30.08 in 6.0 mi ENE 8.1 mph - 0.01 in Rain , Thunderstorm Light Rain
9:26 PM 73.9 °F - 69.1 °F 85% 30.11 in 10.0 mi ENE 9.2 mph - 0.00 in Thunderstorm Thunderstorm
9:36 PM 73.0 °F - 69.1 °F 87% 30.09 in 3.0 mi NE 9.2 mph 18.4 mph 0.09 in Rain , Thunderstorm Heavy Thunderstorms and Rain
9:54 PM 72.0 °F - 69.1 °F 91% 30.13 in 3.0 mi NW 9.2 mph - 0.25 in Rain , Thunderstorm Heavy Thunderstorms and Rain
9:58 PM 72.0 °F - 69.1 °F 91% 30.14 in 1.8 mi NNW 8.1 mph - 0.15 in Rain , Thunderstorm Heavy Thunderstorms and Rain
10:03 PM 72.0 °F - 69.1 °F 91% 30.12 in 1.2 mi ENE 6.9 mph - 0.29 in Rain , Thunderstorm Heavy Thunderstorms and Rain
10:12 PM 72.0 °F - 69.1 °F 91% 30.13 in 1.5 mi Variable 4.6 mph - 0.42 in Rain , Thunderstorm Heavy Thunderstorms and Rain
10:20 PM 72.0 °F - 69.1 °F 91% 30.13 in 2.0 mi Variable 4.6 mph - 0.49 in Rain , Thunderstorm Heavy Thunderstorms and Rain
10:33 PM 72.0 °F - 69.1 °F 91% 30.12 in 3.0 mi Variable 5.8 mph - 0.55 in Rain , Thunderstorm Heavy Thunderstorms and Rain
10:43 PM 72.0 °F - 69.1 °F 91% 30.11 in 6.0 mi Variable 5.8 mph - 0.57 in Rain , Thunderstorm Light Thunderstorms and Rain
10:50 PM 71.6 °F - 69.8 °F 94% 30.11 in 10.0 mi Variable 5.8 mph - 0.57 in Rain , Thunderstorm Light Rain
10:54 PM 72.0 °F - 69.1 °F 91% 30.12 in 10.0 mi SE 5.8 mph - 0.57 in Thunderstorm Mostly Cloudy
11:01 PM 72.0 °F - 70.0 °F 93% 30.11 in 10.0 mi NE 5.8 mph - N/A Thunderstorm Mostly Cloudy
11:16 PM 72.0 °F - 69.1 °F 91% 30.09 in 10.0 mi Calm Calm - N/A   Mostly Cloudy
11:54 PM 73.0 °F - 69.1 °F 87% 30.08 in 10.0 mi SE 4.6 mph - N/A   Mostly Cloudy